Location: Newark
(44.1667°N, 8.2500°E)
Time: 17:18:26
(UTC+00:00)

S-56A Canister/Altair - Pass Details

Date: 14 December 2019
Orbit: 634 x 2498 km, 38.9° (Epoch: 28 January)

Event Time Altitude Azimuth Distance (km) Brightness Sun altitude
Rises 16:04:12 0° 283° (WNW) 6,107 12.9 -3.2°
Reaches altitude 10° 16:10:35 10° 265° (W) 4,897 12.9 -4.2°
Maximum altitude 16:17:29 16° 234° (SW) 4,079 12.7 -5.3°
Drops below altitude 10° 16:23:30 10° 202° (SSW) 4,155 12.1 -6.3°
Sets 16:28:14 0° 182° (S) 4,774 12.0 -7.0°
